Theta_e
317 317 317 317 317 315 315 315 314 312 310 307 304 309 307 305 303 314 316 316 312 303 297 303 307 299 300 307 305 306 306 299 300 299 301 299 301 299 300 299 298 300 298 298 296 297 294 297 295 297 297 298 301 301 301 301 302 298 296 300 299 311 297 292 294 298 302 304 305 306 308 306 302 303 304 302 298 299 294 291 291 293 299 293 299 298 301
317 317 317 317 316 315 315 315 314 313 310 307 305 306 302 303 304 307 314 317 313 304 295 294 294 297 302 303 303 306 300 299 299 299 302 299 300 299 301 300 301 299 300 298 297 297 291 299 297 297 300 297 302 302 301 302 299 299 297 296 300 294 295 295 291 290 295 298 301 300 305 304 301 300 302 303 303 303 302 297 299 295 301 300 299 296 301
317 317 317 317 316 315 315 315 314 314 313 310 306 303 304 306 309 308 310 317 310 301 300 298 296 299 300 300 300 300 301 301 300 299 299 302 299 299 298 299 300 300 301 299 299 301 297 296 299 299 300 301 306 302 303 305 302 307 306 318 302 295 297 293 288 286 285 285 287 289 294 297 301 304 303 306 306 302 301 295 295 292 300 303 298 299 305
317 317 317 317 316 316 315 315 315 314 313 310 306 309 306 303 297 303 305 308 307 305 304 301 299 297 299 298 299 300 297 300 303 301 301 300 302 298 299 300 300 300 299 299 300 300 301 298 299 298 298 299 302 304 303 306 305 319 323 317 303 298 299 296 294 289 289 293 296 301 304 301 297 300 302 307 309 309 305 302 296 295 301 301 301 305 306
317 317 317 317 316 316 315 314 314 314 312 311 305 306 304 309 300 301 297 310 304 303 303 299 300 296 300 294 298 298 298 299 300 300 296 301 300 302 300 301 298 299 299 299 298 300 301 301 299 301 302 303 304 305 304 304 316 324 315 315 301 296 291 294 298 298 296 298 301 304 306 301 300 300 303 307 307 308 306 301 298 302 300 295 303 309 308
316 317 318 318 317 316 315 314 314 313 311 310 308 309 312 300 305 307 314 303 296 304 304 309 308 309 306 298 300 298 297 299 296 298 301 301 301 295 299 301 301 299 297 298 297 299 300 300 300 303 303 300 301 301 304 304 312 311 303 309 300 296 293 296 299 297 298 299 298 303 303 302 302 302 304 306 307 308 305 305 307 305 297 297 306 310 308
316 316 318 318 317 317 316 315 314 312 309 308 310 306 307 310 311 311 316 307 309 311 312 313 310 307 306 299 301 299 298 297 297 297 299 301 299 299 297 300 300 301 302 298 297 299 293 295 301 300 298 302 299 297 300 303 303 303 300 301 305 296 293 298 299 296 297 298 299 301 300 303 302 302 305 307 307 307 308 308 310 309 306 308 310 311 310
315 316 317 318 318 317 317 315 314 312 308 310 312 311 307 310 309 306 313 314 311 312 310 309 307 303 308 297 298 300 299 298 299 301 300 300 302 302 298 299 300 300 301 301 297 301 299 299 298 304 302 296 299 299 298 296 299 301 301 302 302 295 295 305 296 293 294 298 301 300 300 302 303 303 306 308 308 308 308 308 308 309 307 309 309 308 307
315 315 317 318 317 317 317 316 314 310 308 312 310 312 313 314 318 316 309 306 307 311 309 306 305 301 299 295 299 301 300 299 299 300 301 300 301 301 298 299 299 301 300 300 298 303 302 301 303 306 299 295 301 295 297 301 298 298 297 299 300 299 293 298 295 290 291 296 298 299 302 304 302 301 303 306 306 304 306 306 309 306 304 306 309 307 308
315 315 316 317 317 317 317 316 315 310 307 308 307 309 311 313 317 319 313 305 311 307 309 307 303 297 302 306 302 300 299 301 300 298 302 303 300 301 300 299 296 299 301 300 300 301 300 299 299 298 299 298 299 300 300 300 298 296 296 299 295 297 296 292 292 290 288 295 299 298 300 300 298 298 303 306 307 308 308 308 311 311 311 307 304 305 314
315 315 315 317 318 318 318 318 316 311 311 305 303 304 308 308 307 310 312 306 308 309 307 304 302 306 309 309 306 306 304 301 303 298 299 304 302 302 302 299 296 294 303 306 307 302 301 301 301 299 298 296 296 296 296 299 298 296 297 297 298 301 296 293 295 290 288 295 297 299 294 289 292 305 307 309 306 305 303 303 306 310 313 308 312 314 318
315 315 315 316 318 318 319 318 318 313 311 309 306 305 310 311 308 310 307 303 303 311 308 304 307 311 309 309 307 305 304 303 300 305 301 303 302 303 301 300 299 298 306 308 306 303 305 305 303 300 299 298 297 297 298 296 296 309 298 297 296 298 296 293 296 291 288 293 295 291 287 289 305 309 309 312 310 309 306 307 309 311 315 316 316 317 318
315 314 315 316 317 318 318 318 317 316 312 311 307 303 309 312 308 308 309 306 304 309 306 308 313 312 310 309 307 306 306 304 304 305 303 303 302 303 304 302 301 302 308 303 303 301 299 298 296 301 299 300 298 298 298 298 296 299 299 299 295 293 292 293 291 293 290 289 288 283 285 299 307 309 311 312 312 310 308 306 308 313 315 315 314 316 318
315 314 315 316 317 319 319 319 317 317 314 311 306 305 308 311 309 308 308 305 304 310 312 307 310 309 309 308 308 306 305 303 302 304 302 304 302 303 305 305 304 305 303 305 302 295 291 292 290 292 293 294 293 294 300 303 301 299 300 302 299 297 295 292 288 293 289 288 287 290 298 299 301 304 307 306 302 303 304 299 304 311 315 314 313 314 315
315 315 315 316 317 318 319 318 318 317 315 311 309 308 307 309 311 312 313 309 304 308 310 301 307 309 309 308 308 303 301 302 300 301 307 306 303 305 305 307 305 304 304 299 297 297 292 293 290 289 292 289 285 288 300 299 301 300 299 300 299 296 293 293 287 290 291 287 286 288 287 286 295 306 311 313 312 310 311 306 303 312 316 317 314 313 314
315 315 315 315 316 317 318 318 318 317 316 311 311 307 308 309 311 313 313 307 304 295 302 311 310 309 307 307 308 305 301 300 301 300 300 303 304 303 305 305 305 305 303 302 299 297 297 293 290 289 287 289 295 295 291 298 296 300 300 300 300 300 298 294 288 289 289 289 284 284 283 288 297 303 309 312 313 311 311 303 297 307 315 317 316 313 313
315 315 315 315 315 317 318 318 318 317 317 312 310 309 306 312 312 312 310 308 308 301 312 312 311 310 307 304 306 305 305 301 302 297 297 298 304 304 304 306 305 304 303 299 300 293 292 292 293 291 292 298 293 291 296 294 293 296 300 300 299 297 295 294 291 290 291 288 284 287 291 292 300 305 308 310 311 310 302 290 292 304 314 318 318 315 312
315 316 316 315 315 316 317 317 317 317 316 313 311 308 308 310 310 314 312 308 304 306 312 313 309 306 306 305 304 307 309 304 304 303 299 302 307 306 304 305 301 306 304 296 297 293 292 291 288 289 288 298 300 294 283 293 292 292 292 294 292 294 295 292 290 290 293 296 291 292 295 302 306 305 308 309 313 305 292 287 296 308 314 318 319 318 317
314 314 315 315 315 315 315 316 316 317 317 313 312 310 308 312 313 311 311 308 306 301 311 315 313 308 311 311 309 310 311 308 307 301 297 297 302 308 308 308 309 297 302 296 296 293 291 293 299 292 291 294 296 287 293 289 290 297 296 289 289 291 294 295 291 288 290 290 289 289 293 299 304 307 309 311 305 292 291 301 307 312 315 317 319 318 318
314 315 315 315 316 315 315 315 316 316 317 314 312 308 311 312 312 311 309 304 306 306 311 313 312 304 308 305 302 303 305 307 305 302 300 298 305 305 300 298 302 303 302 299 294 295 292 291 292 297 290 292 295 299 290 291 298 295 295 294 290 291 290 288 289 292 292 290 288 286 283 297 310 309 306 307 298 299 305 311 314 317 316 316 317 317 317
314 315 315 316 316 315 315 315 315 316 316 317 312 310 309 312 315 315 315 312 309 306 308 313 312 308 309 307 308 308 305 303 304 302 303 304 307 301 290 294 300 301 299 299 293 295 296 294 295 296 297 295 297 293 289 291 294 298 297 296 295 299 291 290 291 293 288 287 286 286 293 299 309 304 298 305 306 307 312 313 311 316 315 314 314 316 316
314 314 314 315 315 315 316 316 316 316 316 316 314 311 306 310 314 316 316 312 308 309 310 315 317 315 315 315 314 313 311 309 310 311 308 307 310 303 302 305 306 304 306 304 300 300 301 300 299 295 293 295 297 292 294 286 287 295 302 296 290 298 293 293 288 297 293 290 292 300 303 306 308 309 308 309 311 313 312 312 312 312 314 315 314 315 316
314 314 314 315 316 316 316 316 316 316 316 316 314 311 308 310 311 315 312 307 310 314 317 315 316 316 319 320 322 321 319 318 315 313 313 307 305 309 305 304 305 313 313 307 300 299 300 298 297 297 297 298 295 294 295 291 291 296 294 301 296 305 303 301 299 299 303 303 304 306 305 307 308 310 310 312 312 314 314 314 312 313 314 316 316 317 318
313 313 314 314 315 316 316 316 316 316 316 316 315 311 310 312 312 311 310 310 308 307 310 313 310 306 308 309 314 316 320 320 319 316 317 312 304 305 307 310 312 312 311 312 310 303 303 303 301 301 295 300 300 293 289 290 293 295 297 298 298 303 306 302 297 300 294 292 304 305 306 307 308 309 310 312 313 313 313 313 313 315 317 318 319 319 319
312 313 313 314 314 316 316 316 316 316 315 315 315 315 314 312 311 310 308 304 304 301 299 304 308 314 317 319 318 315 313 316 319 315 314 311 308 305 305 312 314 306 307 312 313 306 305 300 299 298 293 299 298 291 297 294 295 299 292 294 297 298 306 301 302 299 293 297 303 306 308 308 309 308 308 309 311 313 314 314 315 316 317 318 320 320 319
312 312 313 313 314 315 315 315 315 316 315 314 315 311 309 310 313 314 310 310 308 307 304 303 310 320 321 316 312 314 317 317 317 316 313 313 311 313 312 316 311 314 315 317 308 307 304 301 300 298 294 294 302 296 297 296 294 299 293 293 298 301 307 297 301 299 302 305 305 306 307 307 308 309 309 310 310 311 313 315 316 316 316 317 319 320 319
312 312 312 313 313 315 315 315 315 315 315 314 314 312 312 312 315 312 308 308 305 301 304 303 308 314 316 311 315 316 316 317 316 313 312 312 315 315 313 312 310 308 307 307 308 308 305 301 299 298 297 297 305 302 302 301 300 298 298 302 305 301 297 300 301 298 296 298 302 304 299 298 304 308 309 311 312 312 312 312 314 315 315 315 317 318 319
312 311 312 312 313 314 315 315 315 315 314 314 314 314 314 312 314 315 315 312 306 301 303 304 305 309 315 311 315 315 316 317 315 312 310 310 313 312 311 311 309 307 309 304 302 300 301 298 297 301 306 306 301 299 303 303 300 299 300 302 304 299 301 299 297 297 296 301 306 305 304 305 306 308 310 312 313 312 311 310 311 314 316 316 316 315 315
311 311 312 313 314 314 314 314 314 315 314 314 313 313 312 313 315 316 317 318 313 309 307 308 310 307 301 307 314 313 315 314 311 310 310 309 310 310 310 309 307 308 309 306 305 302 300 301 305 304 303 307 301 298 299 294 294 294 299 302 307 307 306 304 302 302 304 308 309 309 308 306 308 309 311 312 313 312 312 311 311 312 313 314 314 314 315
312 313 313 314 314 314 314 314 314 314 315 313 311 308 305 309 315 315 316 318 315 312 305 302 298 302 311 311 310 312 313 313 310 310 310 307 307 310 310 309 310 316 311 307 304 301 302 306 308 310 312 312 304 301 296 295 295 298 304 306 309 309 309 308 309 307 305 309 309 310 310 310 311 311 312 314 314 313 310 309 309 308 310 313 311 312 314
313 313 314 314 314 314 314 314 314 314 314 312 309 304 302 299 308 315 314 315 313 314 308 306 301 307 306 310 310 309 310 311 310 309 311 309 308 311 312 312 313 314 306 309 307 306 307 303 305 307 310 313 307 299 296 294 295 298 304 306 306 308 309 310 310 309 311 311 312 312 311 311 311 310 311 313 313 314 313 314 317 321 311 314 312 313 312
313 314 314 314 314 314 314 314 314 314 313 310 306 305 306 307 311 313 314 314 312 312 305 299 298 299 301 305 310 313 313 312 312 312 310 311 310 314 313 312 312 316 312 307 309 306 303 307 307 307 303 308 310 299 299 294 294 298 305 307 308 308 310 310 311 311 312 312 309 308 308 309 310 308 306 311 312 312 312 311 311 311 319 315 313 313 313
313 313 314 314 314 314 313 314 314 314 312 313 314 313 313 313 313 314 314 312 310 309 309 303 296 300 299 302 309 311 313 311 309 312 308 313 315 312 310 315 315 314 326 311 302 300 308 309 307 305 308 312 304 302 298 296 296 303 307 309 308 309 309 310 312 311 311 309 307 302 301 307 308 310 311 311 313 313 312 311 311 311 311 311 310 310 311
313 313 313 313 313 314 314 314 314 313 312 309 306 308 313 314 313 313 314 312 309 311 310 301 298 296 297 307 303 308 316 306 308 307 305 311 316 309 308 310 309 308 309 302 306 306 306 310 304 305 306 306 306 300 296 298 303 306 308 309 308 309 310 309 308 307 308 309 310 309 308 309 311 310 310 310 310 311 312 312 312 311 310 310 310 310 310
313 313 313 314 314 314 314 314 311 311 308 309 310 313 316 315 313 314 314 311 303 302 303 303 303 297 297 298 299 304 318 309 305 310 304 309 314 308 311 305 304 300 304 311 305 302 303 303 307 303 300 303 301 296 297 300 304 306 307 308 308 309 308 307 307 309 310 311 311 310 310 310 310 308 308 308 307 307 306 307 308 307 304 306 309 311 311
313 313 313 314 314 313 312 312 310 308 305 305 309 318 320 319 317 312 313 317 312 304 301 301 300 294 296 293 294 304 318 307 311 310 310 312 307 312 311 304 298 303 311 305 299 304 301 308 306 298 302 298 297 298 300 304 305 307 308 307 308 308 307 307 308 308 309 310 310 309 310 309 307 307 307 306 307 307 306 306 305 303 302 304 307 306 307
313 313 314 313 312 310 307 307 312 310 309 314 317 321 322 320 318 317 313 311 315 317 305 302 298 298 297 295 303 307 308 298 306 305 306 304 304 311 307 303 298 308 304 303 302 301 303 313 302 297 297 295 297 303 304 307 307 306 307 309 309 309 308 309 312 309 309 309 309 308 307 306 306 306 306 306 305 305 304 303 303 304 303 302 304 305 304
313 313 309 309 308 305 306 308 311 315 319 318 319 314 310 314 305 308 310 306 310 314 306 304 298 301 304 302 298 309 305 301 305 302 305 309 305 304 310 303 305 304 296 298 301 307 305 303 300 297 297 300 303 307 307 309 309 309 308 310 310 310 310 312 311 309 307 305 304 305 306 305 305 305 306 306 306 305 304 305 306 305 306 308 307 308 309
310 309 309 310 307 305 308 313 321 321 317 317 316 308 304 306 302 300 302 304 307 302 307 300 296 300 301 300 300 309 305 301 300 304 298 307 302 296 304 297 304 303 292 297 300 308 299 297 299 299 296 300 304 307 311 311 311 312 311 312 312 311 312 312 311 309 308 307 307 307 306 305 304 305 304 305 306 306 305 306 306 307 308 308 308 309 309
308 306 307 308 306 309 320 320 321 316 315 308 309 305 300 302 295 290 303 295 295 302 304 298 302 300 301 298 298 298 311 305 300 301 303 305 310 298 301 300 301 298 291 293 297 307 297 293 296 297 295 299 303 305 308 311 311 312 312 312 312 311 312 311 310 311 310 309 309 309 308 308 308 307 305 306 306 306 306 306 306 307 307 307 309 307 306
308 308 309 308 313 313 316 318 318 317 309 303 301 302 301 293 299 299 299 294 291 294 304 301 301 300 303 303 302 299 307 318 312 312 306 302 311 307 300 297 305 298 294 293 301 303 299 297 296 295 297 300 303 307 309 309 310 312 312 312 312 311 311 311 311 311 310 309 309 309 309 309 309 308 307 307 306 305 306 307 307 307 307 307 308 308 308
310 310 312 312 312 313 316 315 311 306 306 305 297 289 293 297 302 299 298 290 292 297 300 301 297 298 299 303 302 304 305 317 313 311 302 300 306 302 299 301 302 294 290 299 305 301 298 293 290 291 297 302 306 308 310 309 310 311 311 312 312 311 310 309 309 309 310 310 309 309 309 310 309 309 309 308 308 307 307 307 307 307 307 308 308 307 307
312 313 313 311 312 312 313 297 305 305 289 289 287 286 292 289 293 292 295 299 303 300 301 306 303 305 306 307 304 306 306 314 308 308 302 299 305 304 299 297 297 290 296 305 301 297 294 289 287 296 299 303 308 309 310 310 311 311 312 311 310 311 310 309 309 310 310 311 310 310 310 310 309 309 310 309 309 307 308 310 308 306 305 305 304 305 306
313 314 310 310 306 307 305 289 304 301 292 289 285 283 288 289 292 296 295 295 299 298 301 297 298 300 296 303 301 304 307 308 311 308 303 305 302 300 298 292 295 299 304 299 296 291 291 294 299 299 302 307 311 310 309 310 310 310 310 310 310 310 309 310 311 311 310 311 311 311 311 310 309 309 308 307 307 305 305 306 307 308 306 305 305 305 306
306 305 304 300 296 300 294 288 302 296 288 291 292 291 292 289 291 293 294 300 303 300 303 302 301 300 300 302 304 307 305 302 309 302 299 302 299 299 295 292 299 301 296 292 293 293 295 296 298 302 304 306 309 309 310 310 310 311 310 309 309 309 310 310 310 311 310 310 309 310 309 308 307 305 306 306 306 306 305 304 305 305 303 303 303 303 305
303 295 295 292 292 292 291 289 291 288 295 297 295 295 294 295 295 297 302 305 304 305 304 303 304 302 300 302 299 299 305 305 299 301 303 300 295 293 299 302 302 296 295 293 291 288 292 295 299 304 308 309 309 309 309 309 310 311 310 309 309 310 310 310 310 310 309 309 308 308 307 306 305 305 304 305 305 304 304 304 304 303 302 302 302 303 304
304 308 297 294 291 292 300 290 292 294 297 299 300 300 300 300 302 302 307 310 304 305 307 308 305 303 300 298 301 304 304 304 300 302 302 296 294 297 303 298 292 292 290 288 290 292 294 296 301 306 308 307 308 309 309 309 311 310 309 310 310 310 310 310 310 309 308 308 306 306 305 305 304 304 304 303 302 303 305 303 303 303 304 303 304 304 303
291 300 303 290 288 291 291 297 302 300 301 302 301 302 303 304 303 302 305 309 308 309 307 307 306 305 304 307 304 299 301 302 300 300 301 300 300 297 289 294 293 295 295 293 291 294 297 299 303 307 308 309 309 309 309 310 310 310 310 310 310 310 310 310 308 307 306 305 304 304 304 304 304 304 303 302 302 301 303 304 303 303 303 303 304 303 303
306 298 293 291 298 299 298 299 299 297 299 301 303 302 302 302 302 303 309 313 313 310 311 307 306 306 300 304 301 300 297 300 294 292 300 298 293 288 290 287 291 290 295 297 295 296 300 303 306 308 309 309 309 310 310 311 312 312 312 311 311 310 309 308 307 307 306 305 305 304 304 304 302 302 302 302 302 301 302 302 303 302 303 303 303 303 303
297 295 302 296 298 299 301 302 299 296 299 300 301 302 303 302 302 305 314 311 309 309 308 306 306 300 299 300 292 296 292 296 298 294 295 293 294 295 294 289 291 291 294 299 300 302 305 306 309 308 309 310 310 311 311 312 315 313 312 312 311 309 308 307 306 305 305 305 304 304 303 303 302 301 301 301 301 301 302 302 302 302 303 304 304 303 304
305 300 298 306 299 299 301 296 296 296 298 300 301 303 303 303 305 307 313 311 309 307 304 299 300 295 290 290 287 287 291 300 298 295 293 293 297 295 292 291 293 297 299 302 304 305 306 307 308 309 309 309 310 311 312 313 313 312 312 311 309 308 307 306 306 306 305 304 305 309 303 302 302 302 303 302 301 301 301 304 307 305 304 304 303 303 303
294 293 299 304 305 304 303 304 304 302 302 303 303 305 306 305 308 310 313 310 307 302 299 302 298 291 288 288 295 297 301 296 294 297 295 297 299 295 294 294 297 300 302 304 307 309 310 309 309 311 310 311 311 311 312 312 312 311 310 309 308 307 306 306 305 304 304 303 303 302 302 302 302 302 303 303 302 301 300 302 306 305 305 303 303 304 304
Wind_Speed
15 15 15 15 16 16 16 18 18 18 20 7 7 3 2 2 5 9 10 6 0 4 2 1 1 3 4 1 3 6 9 2 2 3 3 3 1 2 1 1 2 1 1 2 1 1 2 1 1 0 2 1 2 5 5 5 5 4 3 2 4 3 2 6 5 6 4 6 4 3 11 6 5 4 6 10 9 7 5 5 4 2 4 3 2 3 3
15 15 15 15 15 15 16 16 17 16 13 4 5 2 1 2 3 8 5 0 2 2 4 2 6 5 6 4 8 11 4 5 1 2 1 2 1 0 0 2 1 1 0 2 1 0 2 3 4 2 0 2 4 1 7 6 3 3 2 1 4 2 2 3 3 5 9 11 11 8 8 5 1 4 7 10 8 7 4 2 2 3 3 2 6 3 2
15 14 14 15 14 15 16 15 15 14 10 5 1 2 2 4 4 5 8 3 3 4 4 5 5 4 4 4 6 6 1 3 2 2 2 1 1 1 0 1 1 1 1 2 3 1 3 1 2 1 1 1 1 7 9 8 4 1 4 4 1 2 1 3 2 2 3 3 4 5 6 7 8 2 10 13 16 13 9 4 4 4 3 4 4 2 4
14 15 14 14 14 15 16 15 15 14 11 6 1 1 1 2 2 5 4 3 1 1 1 1 3 3 4 6 7 4 1 1 1 4 0 2 0 1 0 3 2 1 5 2 1 2 3 4 1 2 2 2 3 2 6 4 2 3 5 2 3 0 1 1 2 2 3 5 6 7 3 4 4 11 12 13 14 12 4 2 5 3 1 7 2 1 2
14 15 14 14 14 15 16 16 16 15 12 4 3 0 1 2 1 2 4 7 4 3 3 2 4 3 5 2 2 1 4 2 1 4 1 1 1 0 1 1 2 1 2 1 2 0 3 4 4 0 1 1 1 6 6 4 4 8 4 4 2 2 1 2 0 2 3 6 6 9 2 6 6 10 10 11 12 10 12 8 2 1 6 6 4 5 6
15 16 15 14 14 15 15 17 18 17 15 1 3 0 1 1 3 2 0 1 3 7 6 6 9 8 5 5 4 3 3 0 1 1 0 4 1 1 3 1 1 1 3 1 1 1 2 2 1 1 2 2 6 4 4 2 4 6 3 3 2 1 0 3 1 3 3 3 3 4 4 4 3 6 10 12 11 13 12 8 5 1 4 5 1 5 7
15 16 17 14 14 15 15 17 19 19 17 4 2 2 3 1 1 2 4 2 3 3 8 9 7 9 11 3 6 1 1 2 4 3 3 2 1 3 1 1 4 0 1 5 2 1 1 1 1 1 1 0 0 2 3 2 4 3 2 2 1 1 1 2 2 4 5 6 8 1 3 2 4 9 11 12 13 11 10 12 14 14 9 5 7 8 9
15 15 16 14 14 15 15 16 18 21 18 2 1 2 0 2 2 4 4 1 4 5 3 3 5 9 11 3 2 2 1 1 1 1 2 2 0 2 3 3 9 3 3 4 5 6 7 6 3 3 1 3 1 1 2 2 4 2 1 0 1 4 2 6 3 4 5 6 7 5 4 8 7 10 11 12 12 12 11 9 8 10 9 8 9 9 7
14 15 16 15 14 14 14 14 16 21 15 2 3 1 3 2 1 1 3 4 4 3 2 3 5 5 7 3 2 3 2 3 4 2 4 6 1 0 5 4 8 7 5 10 5 3 5 5 3 1 2 2 2 3 3 3 0 3 2 1 2 3 3 2 3 4 6 4 6 9 6 15 11 12 11 10 11 12 8 7 4 4 6 4 7 8 4
14 14 15 15 13 13 14 12 14 18 15 4 2 2 3 2 2 2 1 1 3 3 2 1 3 3 3 4 7 4 4 5 4 2 3 0 5 6 5 6 7 3 7 4 5 4 3 3 4 4 4 3 0 2 3 4 3 1 1 1 0 0 0 2 2 2 3 5 5 6 4 10 9 8 7 4 11 10 11 10 9 5 1 7 7 2 3
14 13 14 14 12 13 13 12 11 13 9 5 3 3 4 5 5 5 2 1 4 2 3 2 3 1 7 8 12 11 12 5 5 6 2 1 3 4 8 6 6 3 2 1 2 5 5 2 2 3 4 4 3 2 3 5 3 5 2 1 0 1 2 0 1 0 4 6 8 5 7 6 1 3 10 5 7 13 14 8 7 8 5 3 2 2 1
13 13 13 13 12 12 11 10 9 9 7 3 1 2 4 2 2 2 1 0 4 2 2 1 4 4 9 10 7 9 10 12 4 8 7 1 4 4 7 5 4 2 2 0 1 4 4 6 6 5 5 6 5 5 6 4 3 4 5 6 2 3 1 1 0 1 3 4 6 8 4 2 1 4 10 6 13 16 16 12 11 8 8 9 7 6 6
12 12 12 12 12 11 10 9 9 7 6 4 0 2 3 2 1 1 1 0 3 2 5 2 5 7 6 8 11 11 12 6 4 9 5 4 3 4 2 3 4 2 1 4 7 7 4 1 3 0 4 4 5 7 7 10 7 5 5 2 6 1 2 0 2 0 2 3 2 2 2 2 2 3 3 8 3 7 14 12 11 7 6 6 5 3 6
12 12 11 11 11 11 10 9 9 8 7 5 4 3 2 2 1 2 1 1 4 1 3 4 4 6 9 10 7 11 9 9 2 5 5 2 3 2 1 3 5 5 5 6 7 4 2 5 2 3 5 3 3 1 3 2 1 5 6 2 4 6 3 3 1 0 0 1 3 2 1 5 10 5 5 5 5 6 5 6 5 5 2 2 4 3 3
11 11 11 10 11 10 9 9 9 9 8 8 3 4 4 3 2 1 2 0 3 4 2 2 2 6 8 7 7 8 7 5 6 0 1 2 3 4 7 3 3 5 6 7 2 4 2 2 1 1 3 1 0 2 3 0 1 4 6 3 4 5 3 2 4 1 2 4 3 2 1 4 5 4 5 4 10 6 4 7 2 5 4 0 3 4 4
11 11 10 10 10 10 10 9 9 10 9 9 4 4 7 4 4 2 2 1 0 4 3 2 5 4 5 4 4 3 3 4 3 2 4 1 1 3 3 5 4 7 4 5 2 3 1 1 2 1 2 3 1 1 1 2 1 1 1 4 4 5 6 5 4 1 3 2 2 1 2 2 4 5 5 6 10 6 2 6 3 4 2 2 1 3 3
10 10 10 9 9 10 10 10 10 11 8 8 5 5 4 2 3 1 1 1 1 6 4 8 5 3 1 4 5 4 3 3 3 1 1 1 0 2 1 1 2 5 4 3 1 2 1 0 0 1 2 2 1 1 1 1 1 1 4 6 7 5 2 1 2 2 1 2 3 0 1 1 2 4 5 7 6 3 4 1 2 2 4 1 0 1 1
9 10 10 9 9 9 10 9 10 10 9 7 5 4 6 3 3 0 1 1 1 4 4 2 6 2 1 1 2 5 2 3 4 1 1 2 0 1 1 2 3 5 5 3 1 1 1 1 1 2 1 1 1 3 1 1 1 1 1 0 1 2 2 4 2 1 1 4 1 1 1 3 3 3 6 7 2 4 3 4 5 3 2 1 1 0 0
8 8 9 9 9 9 9 10 9 9 9 8 7 5 4 2 2 1 2 1 1 4 6 8 5 6 4 3 3 3 1 3 2 1 2 2 0 2 3 3 4 2 2 2 2 2 2 2 0 2 2 2 2 2 1 1 3 1 2 3 3 2 1 1 3 3 1 1 4 2 2 4 3 6 3 1 2 1 5 4 4 5 3 0 3 2 0
8 9 9 8 9 9 9 9 10 9 9 8 5 3 9 7 6 2 1 1 1 4 8 9 5 7 3 4 3 3 6 2 2 1 1 1 3 2 3 2 6 4 3 2 1 1 1 1 1 0 1 1 1 2 1 1 1 1 1 2 3 2 2 1 0 0 2 3 3 1 0 2 1 3 3 4 4 6 5 3 1 3 3 4 2 3 2
8 8 8 8 8 8 9 9 9 9 9 9 5 4 6 2 1 3 3 1 2 3 7 3 1 4 5 8 9 7 5 7 7 4 4 2 1 2 2 2 2 1 2 2 2 0 1 0 0 0 1 2 1 3 1 1 1 2 1 1 2 1 2 0 1 2 3 1 2 2 4 2 2 3 2 2 1 5 5 5 3 0 2 2 3 1 2
9 8 8 8 9 9 9 9 9 8 8 8 7 2 4 4 4 4 4 3 2 5 5 8 7 11 14 13 13 11 11 13 13 7 3 0 3 2 4 4 2 2 1 2 2 1 2 0 0 1 2 1 4 2 2 3 0 2 1 4 2 2 3 5 3 1 2 3 4 2 2 2 4 6 4 3 4 4 4 5 3 4 1 1 4 3 3
8 8 8 9 9 10 10 9 9 8 6 8 4 1 5 7 8 6 6 2 3 3 4 7 6 8 10 14 15 14 15 12 11 6 5 5 1 3 3 2 1 0 1 2 3 5 3 3 0 3 1 1 3 1 3 2 2 0 1 1 4 0 2 2 6 1 1 3 4 5 2 5 4 3 4 7 5 4 6 6 4 1 2 4 5 4 5
9 9 9 8 9 9 10 10 10 8 6 5 4 4 5 5 7 7 3 1 1 5 6 3 1 3 3 6 7 4 7 8 10 3 1 5 4 0 2 1 1 3 1 1 4 4 2 1 2 2 1 3 2 1 3 1 0 2 3 1 2 1 0 1 4 1 7 2 0 5 6 4 6 5 4 4 4 3 2 4 3 3 3 3 3 5 5
10 10 9 9 8 9 9 10 10 8 6 6 6 4 5 6 4 1 2 1 2 2 1 7 4 9 7 8 8 8 5 3 4 3 2 4 6 7 4 1 2 6 3 0 2 5 2 1 1 1 1 2 4 2 2 4 2 2 2 2 0 1 1 7 2 3 2 4 6 4 3 4 4 7 7 5 4 4 3 3 4 4 3 3 4 5 4
9 10 10 10 9 9 10 10 10 8 7 5 6 3 3 5 4 5 3 2 2 2 2 4 7 6 7 10 9 8 10 10 9 3 3 4 6 8 7 1 3 3 4 3 6 4 2 1 1 1 2 4 2 1 1 4 3 1 4 6 6 3 2 3 2 4 3 5 2 4 5 5 3 3 3 5 6 5 4 4 4 4 5 4 3 4 4
9 10 10 10 10 10 10 10 10 9 8 6 4 4 5 6 5 4 3 1 1 2 2 4 6 7 7 13 13 8 7 4 5 5 3 4 8 4 6 5 5 4 5 3 2 3 1 1 2 1 3 2 2 1 2 0 2 2 1 1 0 3 3 2 6 8 5 7 7 7 7 2 2 3 5 4 4 7 5 4 4 4 5 4 5 3 3
10 9 10 10 10 10 8 10 10 10 8 8 6 6 6 7 6 6 6 4 2 1 2 4 6 9 10 9 6 4 9 8 6 4 7 5 9 7 6 6 5 4 2 3 1 1 1 1 2 2 1 1 1 2 1 1 4 3 2 1 1 3 4 6 6 8 7 7 9 5 6 6 6 7 4 5 5 6 6 5 5 4 4 4 5 4 3
9 9 9 9 7 8 8 11 11 9 9 6 5 7 7 10 9 7 7 4 3 3 3 5 5 3 1 7 9 9 6 5 7 7 8 5 7 6 7 6 5 4 3 3 2 2 2 2 1 2 1 3 3 1 2 1 1 3 2 3 1 1 5 8 9 5 1 5 8 7 7 8 5 5 5 6 5 8 6 4 4 4 4 4 3 3 4
9 9 8 7 7 7 9 10 10 9 7 4 3 2 2 1 2 6 7 5 3 2 2 3 4 4 3 4 5 4 4 5 5 5 5 4 3 6 8 7 4 3 3 2 2 1 2 2 1 1 1 1 1 1 1 1 2 3 2 2 1 3 2 4 8 7 4 4 6 6 7 6 6 7 6 6 5 8 7 5 5 5 3 4 5 3 3
9 9 9 8 7 8 10 10 9 8 6 3 1 1 1 0 0 4 6 3 1 2 2 2 5 5 6 4 4 7 7 3 3 2 1 3 4 5 5 5 2 5 2 1 1 2 1 2 2 1 1 1 2 1 2 2 1 1 4 3 3 5 4 4 2 3 7 7 5 3 4 5 5 5 5 6 5 6 4 2 4 5 3 3 4 5 2
9 7 7 8 8 8 9 8 9 7 5 4 4 3 1 1 1 4 5 5 4 0 1 1 3 2 2 3 3 2 1 2 1 1 1 2 2 3 2 5 2 2 3 2 1 1 1 2 3 2 2 0 3 2 2 2 3 4 3 4 3 4 4 4 4 4 5 6 8 7 6 3 7 10 5 6 6 5 7 5 4 3 3 4 3 5 5
8 7 8 9 9 10 10 10 9 7 4 5 11 15 18 19 20 18 6 3 0 2 1 0 2 2 2 4 4 6 3 2 4 0 1 4 3 1 2 3 2 3 2 3 0 1 2 3 1 3 1 0 1 1 1 3 3 4 6 6 5 5 5 4 4 4 5 4 6 6 6 8 6 5 8 7 6 7 6 5 4 3 4 4 4 4 4
9 8 8 9 9 9 8 8 8 9 8 5 5 6 6 13 14 16 5 3 1 3 0 1 1 1 4 4 3 4 4 2 1 3 2 5 0 3 2 2 4 2 5 2 2 0 3 3 2 1 1 0 1 2 1 3 2 5 4 5 5 4 5 5 5 5 4 4 3 3 5 5 4 3 5 6 5 4 5 5 3 3 1 4 4 5 4
8 7 8 9 8 8 9 8 4 4 3 4 5 7 6 9 9 9 11 4 3 0 0 2 1 2 2 2 2 3 2 3 1 0 3 6 2 2 1 4 3 2 4 1 1 2 1 2 5 4 4 0 2 1 3 4 4 4 4 5 4 6 5 5 2 5 5 5 6 6 5 7 7 5 5 4 5 5 5 5 4 4 3 4 4 3 4
7 7 8 8 7 5 4 4 4 3 3 4 6 4 3 3 7 7 6 1 0 1 1 2 2 3 1 1 1 1 1 2 1 1 1 3 3 2 2 4 2 2 0 1 2 0 1 2 3 1 1 2 4 4 6 6 7 7 7 7 7 9 8 9 7 5 6 7 8 6 6 5 6 5 4 4 4 3 3 3 3 4 7 5 5 4 5
5 6 7 7 3 2 4 4 3 5 5 3 2 5 11 12 5 4 2 2 1 1 1 0 1 3 3 3 1 4 1 1 1 2 3 1 3 1 2 2 4 1 1 0 0 1 4 0 1 2 3 4 4 6 7 8 9 8 6 7 7 6 6 5 9 9 7 7 8 6 6 5 4 3 4 4 4 4 5 4 4 2 3 3 4 2 3
3 4 2 2 2 2 2 3 4 5 8 3 3 0 2 3 2 1 1 0 2 2 1 1 3 3 1 0 2 2 1 2 1 2 0 1 2 3 1 2 1 0 1 1 3 4 2 1 2 3 4 5 5 4 7 7 9 8 8 7 8 6 7 8 9 10 8 5 5 5 5 4 3 4 5 4 3 4 3 3 4 4 4 4 4 4 5
1 2 2 3 2 3 1 1 4 6 7 1 1 0 1 0 1 0 2 2 1 1 2 4 5 3 2 1 5 4 2 1 2 1 2 5 3 3 2 2 1 1 1 0 3 1 1 1 1 1 5 2 2 3 4 7 5 7 8 8 8 7 8 10 11 14 13 12 11 9 9 8 6 5 4 4 3 3 3 4 4 4 6 5 5 4 5
2 3 2 2 4 4 3 5 4 3 1 1 1 1 1 1 2 2 1 1 1 2 2 4 4 4 7 8 5 5 1 1 1 1 3 1 0 6 4 1 1 2 1 2 3 1 2 1 1 1 6 3 6 4 4 5 7 6 7 7 8 7 9 10 7 7 9 7 9 9 7 7 7 7 6 5 4 4 2 2 3 4 5 5 4 5 4
2 2 2 2 2 3 3 5 4 0 1 0 0 0 0 0 1 1 0 1 2 2 2 3 2 2 3 4 4 5 5 2 0 2 3 2 1 3 2 1 1 1 1 1 1 2 1 0 1 4 8 5 5 5 5 5 6 6 7 8 8 8 8 7 7 6 7 5 4 4 4 5 5 5 5 5 5 5 4 4 4 4 4 4 3 2 1
1 2 3 4 4 4 4 1 1 1 0 0 1 1 1 2 1 0 1 2 3 1 3 3 3 6 6 9 7 4 2 1 2 1 2 1 2 2 2 1 0 2 2 4 2 1 1 2 2 4 5 6 7 4 8 7 6 7 7 8 8 8 8 9 8 6 9 9 7 6 6 8 7 6 6 6 6 6 5 4 3 2 2 2 3 4 4
10 6 3 2 2 2 1 1 1 1 1 0 2 2 1 1 2 2 1 1 1 1 2 2 2 2 0 3 0 2 3 2 1 0 1 1 0 1 2 1 1 0 3 1 2 1 2 3 3 8 6 6 6 7 9 11 9 8 9 8 8 8 9 9 9 8 7 10 8 8 7 7 7 6 6 6 5 5 4 4 4 4 4 4 4 4 4
4 3 2 2 0 2 1 0 1 1 1 1 4 3 2 1 2 1 1 2 2 2 2 4 3 6 4 2 4 2 1 0 1 1 2 0 2 1 1 1 3 4 0 1 1 3 5 3 7 7 7 4 4 6 8 7 8 7 7 6 7 7 7 7 7 8 5 5 6 6 6 6 6 5 5 5 7 8 5 4 4 5 5 5 5 4 3
1 1 0 0 0 1 2 1 1 1 3 3 2 2 3 4 4 3 5 5 1 3 3 4 4 4 4 3 1 1 2 1 0 2 2 1 1 0 2 2 2 0 2 2 1 2 1 4 4 3 3 4 7 7 8 10 10 12 9 7 7 7 8 9 8 8 8 8 8 8 7 6 7 6 6 6 5 6 7 5 4 5 4 5 4 4 2
2 2 1 2 2 1 1 1 1 1 1 2 3 4 3 5 3 4 6 3 2 1 0 3 3 4 4 3 4 3 1 2 2 1 2 1 2 2 2 1 1 1 1 1 2 5 7 7 5 7 8 9 9 8 7 7 7 8 11 10 8 8 8 9 8 9 8 8 6 7 7 7 8 8 6 5 6 6 5 4 4 5 4 4 3 2 0
1 1 1 0 1 2 1 2 3 3 2 2 5 6 7 7 7 6 4 2 6 3 3 1 4 7 5 4 2 0 1 2 2 1 2 2 2 1 0 2 2 2 2 3 4 3 4 6 5 6 7 5 5 7 8 7 8 9 9 8 8 9 9 10 9 9 7 7 8 8 7 7 7 7 6 6 5 5 4 4 4 4 4 3 1 1 2
1 2 1 1 3 1 3 3 1 3 4 5 5 5 6 3 3 6 6 4 3 2 3 1 2 1 2 1 2 4 2 1 2 1 1 1 0 1 1 0 1 1 2 2 4 4 6 6 7 6 7 8 10 10 8 8 8 9 9 8 8 9 9 10 8 8 9 10 9 8 7 7 6 6 7 6 5 3 4 5 4 4 3 3 3 3 3
1 0 1 1 2 1 3 4 5 6 7 6 6 5 4 5 7 6 5 1 2 1 1 3 2 1 1 2 1 2 0 2 1 2 0 0 2 3 2 2 2 2 3 3 5 5 6 8 5 4 7 8 8 9 9 9 9 10 10 10 9 10 9 10 9 9 8 8 8 8 7 6 7 7 5 5 6 4 4 4 4 4 3 1 1 1 1
0 1 1 0 2 3 4 1 5 6 4 4 4 5 5 5 3 3 3 4 2 2 2 5 4 4 1 1 1 2 1 4 1 0 1 2 2 1 1 2 2 2 1 1 2 5 5 3 6 6 6 7 8 9 9 8 8 8 7 8 8 9 9 11 10 9 8 8 8 9 7 7 6 6 7 7 5 4 2 2 2 2 0 1 4 3 3
1 2 2 2 3 2 3 2 2 3 5 3 3 5 5 3 3 2 3 0 4 2 4 3 2 2 1 2 1 1 1 2 1 1 3 2 1 1 2 3 2 3 3 4 5 4 1 2 5 7 7 7 7 7 8 9 8 8 8 8 8 9 8 10 10 10 9 9 8 9 7 6 6 6 6 5 4 4 2 0 0 1 2 3 4 4 4
1 1 2 3 5 5 4 4 5 6 5 3 2 3 4 3 1 1 2 5 3 3 3 2 3 2 2 2 2 1 0 1 1 1 1 3 1 2 2 3 4 5 5 2 0 0 3 3 4 7 8 9 8 7 7 7 8 8 8 9 10 10 9 9 9 9 9 7 7 7 7 6 6 5 4 4 4 3 2 2 2 3 3 3 4 4 5
Wind_Direction
339 340 342 343 344 346 350 351 348 352 353 11 347 334 4 39 230 268 290 305 83 70 191 292 233 215 242 314 259 241 258 252 244 61 13 30 37 35 36 28 60 268 93 49 95 100 97 40 111 175 18 71 13 305 27 66 62 83 342 4 309 11 38 352 296 297 283 309 343 33 37 2 10 356 357 357 341 305 240 198 194 126 321 72 16 65 261
338 339 342 342 342 347 349 349 350 352 21 7 303 18 43 265 276 311 290 160 145 169 209 242 258 263 282 276 275 264 229 189 184 114 89 111 2 124 253 1 77 217 6 97 107 89 69 357 38 7 94 66 241 79 45 66 55 75 233 117 273 33 297 97 340 350 343 351 350 6 353 33 85 309 324 336 315 303 265 118 35 78 336 215 128 190 246
335 337 340 341 342 346 346 345 345 348 351 10 346 17 288 282 261 232 285 336 119 204 190 182 230 248 265 285 285 256 268 306 160 137 178 84 150 68 294 237 220 68 305 42 65 39 133 153 310 137 284 136 354 12 70 73 79 103 203 200 37 94 237 77 65 35 29 326 314 311 323 311 306 291 356 13 15 5 17 7 352 87 337 54 54 21 279
334 336 337 340 343 345 342 341 340 341 341 346 141 244 16 348 12 298 322 351 349 245 198 151 186 260 277 293 274 204 107 318 232 136 351 134 209 132 178 330 45 94 64 42 57 32 23 97 282 38 327 325 28 11 53 54 91 356 18 74 83 187 330 121 148 145 193 206 206 244 258 319 321 360 20 29 30 14 27 86 69 65 92 74 44 206 337
333 336 335 338 343 344 341 339 335 337 336 323 156 275 164 320 169 290 331 328 20 341 343 16 14 292 287 269 275 56 138 178 350 28 96 269 171 63 105 317 25 310 66 171 86 333 69 23 87 321 35 269 355 333 46 27 3 18 3 39 79 63 12 281 248 208 219 198 200 239 216 273 350 358 36 44 46 36 45 39 341 275 83 25 332 358 80
336 337 335 338 342 344 342 338 336 335 341 115 169 335 209 45 267 64 102 163 277 6 325 357 325 300 296 262 272 221 153 48 136 333 293 179 140 102 335 337 263 202 174 145 70 332 68 20 92 332 1 22 343 18 332 17 309 17 347 41 111 132 255 270 304 308 288 281 268 209 262 278 104 18 42 51 45 48 50 20 340 114 104 153 277 39 61
334 336 336 340 344 343 343 340 338 339 344 131 185 29 290 195 308 321 5 32 297 278 275 305 308 311 303 252 245 270 226 188 183 160 231 120 23 108 120 286 302 321 200 107 167 80 75 326 296 144 301 107 328 2 345 322 359 47 354 5 71 83 299 269 14 335 338 324 323 357 118 228 80 54 53 60 51 40 45 54 53 71 87 78 59 47 45
333 336 337 340 343 344 343 343 342 341 346 124 348 115 66 352 16 315 350 266 275 276 310 328 350 324 300 275 242 220 173 278 12 43 89 41 13 152 109 29 8 23 106 98 138 194 167 175 165 238 129 338 54 189 192 253 328 38 348 102 299 101 293 322 26 24 315 308 311 333 118 109 82 57 62 67 64 51 40 42 56 76 64 51 46 38 360
334 334 337 341 342 344 344 348 351 345 348 76 41 6 47 282 283 287 309 328 267 284 326 18 342 312 327 14 286 260 228 231 165 162 146 141 164 149 114 90 55 17 49 70 39 358 133 97 110 146 131 31 226 125 280 142 190 335 13 36 320 66 257 12 72 24 313 309 343 341 83 88 62 42 26 54 63 58 33 42 348 63 102 120 57 35 339
334 335 337 339 340 344 344 353 359 355 346 95 14 356 309 289 282 289 165 252 277 313 315 315 23 333 294 341 314 311 263 231 117 79 320 86 144 138 107 106 101 38 34 44 99 112 93 104 145 159 180 174 225 206 218 167 177 205 185 257 26 158 63 13 358 16 272 283 346 334 126 88 58 15 336 40 82 89 65 41 30 25 37 70 69 237 278
336 335 336 337 339 342 345 354 6 9 10 54 27 318 335 15 340 350 24 102 313 335 355 335 16 231 325 347 334 336 343 312 123 121 248 6 31 95 108 96 99 137 106 254 275 160 154 163 62 34 14 353 335 290 292 259 184 169 159 76 35 59 100 160 198 161 260 315 330 12 57 56 177 254 330 293 99 86 70 44 19 21 36 87 102 155 256
335 336 336 335 339 340 344 355 4 27 42 1 189 246 244 311 307 207 28 101 258 282 66 269 349 312 341 332 333 326 327 316 248 139 133 197 127 110 92 78 90 67 251 278 58 49 37 26 22 12 351 329 313 298 286 270 296 212 153 140 147 90 63 357 145 51 290 329 13 47 54 208 237 327 350 358 100 90 82 58 42 46 74 91 95 115 116
333 334 334 334 336 341 342 356 1 8 26 5 107 245 282 332 217 266 264 175 250 326 333 330 325 303 317 338 343 331 323 296 123 105 108 123 80 82 85 130 126 196 177 86 58 51 65 15 340 296 296 307 304 295 301 284 264 266 20 66 111 123 92 224 14 156 6 34 18 83 255 236 307 42 92 269 272 100 78 55 33 33 82 111 116 136 126
330 334 333 331 336 339 343 353 0 352 0 9 339 252 264 292 5 351 33 34 287 287 339 332 315 336 349 348 325 319 337 357 344 112 127 169 127 130 91 85 141 152 133 95 61 70 16 36 0 11 319 10 1 18 287 312 129 109 113 201 133 130 112 96 315 80 153 175 79 140 82 6 339 359 8 336 308 305 129 107 22 349 352 103 142 151 159
329 332 331 330 335 336 341 350 358 351 350 354 304 279 262 246 225 197 288 105 261 274 216 227 303 336 341 328 341 337 347 358 359 330 305 125 73 108 114 130 138 120 95 77 42 47 131 106 32 19 330 37 195 249 312 36 299 126 149 136 103 135 105 224 94 289 119 108 85 54 76 171 243 230 231 302 300 317 118 98 90 336 350 6 142 167 175
327 331 331 330 331 335 340 348 354 353 354 351 331 307 284 238 219 212 217 186 105 331 265 82 22 309 316 300 330 329 307 330 316 325 355 4 141 61 52 122 120 94 69 72 106 102 105 115 236 111 221 210 231 85 276 339 351 349 25 109 82 28 84 131 118 233 35 50 120 184 158 239 202 244 254 238 236 249 175 69 13 277 303 304 192 178 196
327 331 332 329 330 332 342 351 353 355 351 11 345 323 297 321 32 30 28 5 129 228 307 336 302 299 325 324 345 8 332 335 50 51 338 330 320 107 158 36 57 88 104 82 30 68 38 349 123 168 260 182 95 203 317 38 35 332 334 14 40 54 12 52 28 24 215 131 81 113 206 182 281 275 274 267 264 247 81 36 285 259 290 286 163 252 253
325 328 332 332 332 332 337 344 350 351 351 355 347 306 274 325 291 287 26 156 173 278 254 45 29 7 55 349 289 264 296 1 16 1 145 248 74 144 132 53 30 356 99 97 111 92 118 144 164 190 214 266 152 72 186 204 110 211 129 128 81 5 1 55 129 106 12 95 138 40 318 288 275 277 287 290 281 78 119 197 228 241 234 276 157 146 220
314 321 330 334 331 329 331 335 343 344 352 353 337 297 264 219 316 346 168 286 175 248 277 335 313 268 274 323 248 271 320 310 268 7 297 13 259 281 109 124 115 116 353 130 82 137 143 261 45 119 137 304 38 193 212 63 208 258 79 38 15 359 70 329 57 52 121 122 113 197 229 240 245 266 259 306 61 87 167 228 196 163 189 200 141 140 59
308 315 322 329 332 332 331 331 337 343 346 357 4 297 279 302 274 203 114 235 277 276 291 276 257 265 315 327 320 342 329 295 150 104 209 175 275 48 29 33 330 77 16 61 73 232 107 235 228 131 34 195 253 169 40 276 285 148 158 172 121 205 108 214 137 274 44 50 71 35 285 278 244 254 343 29 117 211 198 150 153 143 153 126 121 149 139
299 306 316 329 335 333 330 331 335 341 342 348 13 324 325 278 23 21 27 182 178 303 294 263 205 258 290 279 269 270 270 252 283 340 248 187 211 91 116 189 216 113 168 129 145 237 149 259 260 177 205 133 267 56 176 207 2 329 129 143 127 187 82 267 281 168 144 111 124 192 216 227 295 110 146 312 194 162 131 114 123 119 122 103 111 107 124
298 303 312 322 328 328 325 327 333 338 339 340 345 305 255 278 346 327 324 228 201 214 245 288 294 280 274 265 263 253 245 247 245 228 215 214 353 137 182 144 162 117 193 119 50 20 2 203 71 55 33 314 18 124 162 73 9 271 10 73 49 228 157 177 150 223 131 191 203 214 224 142 41 89 108 98 79 107 128 119 143 132 90 138 112 144 127
290 298 303 315 324 326 328 326 327 329 338 332 334 282 289 315 316 325 321 304 284 286 273 273 270 275 269 266 255 242 243 237 250 253 180 115 30 8 95 86 3 201 73 98 161 157 187 122 194 165 94 177 162 137 8 120 185 271 113 258 167 203 159 151 87 30 100 62 114 148 101 89 67 49 103 105 92 86 105 115 104 137 171 154 148 155 145
279 285 292 301 312 321 325 326 322 324 324 318 315 292 293 296 289 330 323 210 191 303 295 267 326 284 239 279 302 259 234 232 219 234 164 129 111 1 349 320 148 49 41 233 173 131 194 127 195 135 130 246 84 96 140 342 228 197 99 358 325 281 194 73 114 162 79 135 310 121 133 114 102 99 62 77 95 111 101 91 96 129 114 112 130 134 150
276 279 282 288 300 314 319 319 320 316 311 309 310 285 279 280 263 168 12 355 347 60 273 309 264 244 276 303 290 283 277 289 244 146 106 87 127 137 160 193 153 141 162 178 53 56 43 99 347 57 127 262 110 260 224 113 296 136 78 253 20 298 126 82 124 92 123 182 165 150 132 128 144 126 116 111 105 103 120 134 142 124 122 122 138 117 110
272 273 276 282 292 303 305 309 314 312 303 289 303 290 282 270 301 331 316 259 240 185 252 290 278 319 344 341 323 292 295 303 302 241 166 161 154 139 148 108 43 43 105 97 87 94 119 57 108 150 117 284 112 124 208 196 182 144 133 211 195 181 79 163 160 100 58 52 67 112 75 59 62 100 115 139 133 121 120 124 118 105 92 89 105 137 158
271 275 276 281 286 295 301 307 308 309 310 295 285 260 265 269 251 242 218 208 14 317 206 250 283 308 353 319 290 297 291 282 290 289 231 138 115 122 100 101 105 55 78 32 29 126 81 108 118 233 165 223 132 182 151 285 122 128 112 301 285 61 85 122 92 114 153 167 193 150 118 196 217 173 157 147 137 111 115 107 108 112 106 101 100 82 126
273 274 276 273 277 286 303 303 302 304 302 296 283 264 253 251 236 216 224 218 206 226 280 296 307 291 303 273 255 280 291 282 271 194 187 163 139 131 128 120 112 89 51 86 27 27 89 108 249 238 151 326 61 307 323 151 69 41 53 249 187 134 188 136 149 158 199 223 195 179 145 152 186 174 181 142 130 109 108 125 139 149 145 137 122 119 91
271 272 270 273 278 291 294 297 299 300 300 302 287 275 257 236 235 222 218 202 204 284 275 273 273 318 294 291 312 306 302 313 282 210 179 166 159 129 135 137 133 133 93 94 127 131 140 212 177 124 156 207 100 272 52 226 100 166 225 253 268 237 164 167 179 154 206 176 176 167 145 158 199 197 166 157 139 114 113 119 122 130 132 123 125 160 154
271 274 276 277 276 277 288 294 297 296 301 309 303 286 315 351 171 189 194 209 220 211 296 337 333 266 294 302 275 293 297 313 338 80 107 141 132 132 147 131 138 122 128 159 153 233 217 129 314 314 335 58 95 162 80 169 128 239 261 256 184 67 92 142 147 135 181 191 167 169 151 159 157 165 157 150 141 123 125 131 129 116 114 140 112 103 158
269 272 270 269 270 278 288 291 295 300 305 277 342 340 127 133 15 85 86 70 324 203 232 194 246 291 307 248 246 268 271 283 317 13 72 95 142 156 160 102 95 114 84 49 95 223 125 100 111 294 336 45 109 107 179 117 165 269 247 217 181 134 135 174 206 152 136 150 165 137 124 132 129 94 99 130 137 127 118 140 136 136 141 98 115 119 119
272 272 274 275 279 282 284 283 285 282 270 254 210 210 160 149 267 291 339 3 339 54 190 341 310 308 260 295 270 251 253 293 260 160 356 82 24 10 121 98 144 51 125 147 186 41 209 185 115 175 120 276 77 108 91 106 161 226 222 212 215 160 137 116 107 106 118 139 115 95 97 146 162 145 185 173 151 144 140 162 177 200 134 133 154 125 133
268 269 271 279 283 288 288 286 283 274 255 282 295 288 276 266 262 264 271 295 327 229 204 164 231 257 290 260 306 325 335 17 12 152 211 339 140 86 25 356 57 62 13 88 346 140 201 118 84 109 240 33 115 127 132 188 215 224 181 168 169 160 153 138 118 120 136 157 134 148 177 178 205 186 154 164 152 151 148 163 208 169 108 122 113 100 85
272 271 276 281 286 285 285 281 273 268 269 273 289 251 243 231 238 239 179 168 236 252 61 158 290 286 268 304 355 293 346 94 296 34 10 310 93 79 157 69 359 71 341 108 242 70 326 79 115 193 353 325 73 88 253 258 234 181 177 172 166 154 134 122 120 112 101 84 72 123 160 168 146 135 117 125 144 160 150 180 157 139 110 137 165 163 135
265 270 273 281 283 284 280 274 275 235 247 255 251 247 253 240 206 151 152 162 121 321 73 279 233 313 334 339 333 271 322 71 20 343 91 285 323 145 95 67 328 90 266 74 38 166 179 228 164 106 219 273 72 220 237 228 231 189 172 166 171 132 107 105 138 135 128 123 108 106 107 112 114 125 141 139 143 151 143 159 155 137 124 183 181 139 125
278 286 290 286 283 282 281 251 210 232 225 236 224 278 257 241 149 142 164 144 121 166 150 246 144 203 165 314 307 282 34 67 167 7 104 180 338 349 98 115 71 262 229 109 198 272 199 207 109 228 226 137 221 189 224 189 188 193 180 177 181 156 169 166 167 163 140 133 128 128 112 110 130 162 167 168 172 176 127 113 128 131 136 143 169 170 165
287 288 295 295 281 216 232 228 195 200 221 190 243 137 112 100 78 83 53 0 299 162 168 222 37 261 166 224 268 282 54 32 331 61 338 42 177 289 33 61 139 236 35 3 28 169 257 17 122 144 180 192 245 225 201 182 179 181 196 188 185 176 155 153 152 141 129 132 134 142 147 149 165 172 155 155 150 152 126 129 146 130 170 167 149 175 196
315 293 258 251 214 249 218 214 213 222 196 288 339 342 340 10 87 21 78 73 237 135 276 152 231 253 321 73 249 254 99 247 85 138 76 250 61 349 347 90 188 318 151 232 245 185 103 77 189 176 253 241 234 216 202 190 196 188 182 178 181 180 162 153 149 133 129 125 135 150 141 140 151 201 164 193 158 142 178 184 162 147 137 142 152 139 108
203 248 233 231 258 248 300 286 275 162 140 229 134 42 291 289 99 153 223 202 91 244 234 150 229 200 170 265 277 296 154 177 188 97 104 272 103 315 331 84 306 55 308 3 294 182 245 311 301 209 256 267 218 248 212 193 190 193 186 182 172 174 156 159 162 157 165 174 178 175 164 174 173 206 190 165 205 196 177 147 141 136 131 140 132 121 116
213 212 222 190 215 254 295 311 6 112 111 131 231 131 191 181 111 250 194 138 268 242 160 226 216 184 185 200 213 291 277 113 151 190 153 211 4 137 259 83 248 101 223 153 242 132 129 201 246 176 267 243 231 245 195 187 176 196 176 175 167 164 157 158 173 169 164 172 170 174 171 170 164 168 176 162 155 141 132 113 144 146 140 150 157 133 144
213 244 255 285 321 302 293 304 304 166 162 177 96 271 74 296 223 220 179 201 176 227 183 188 168 199 210 169 171 222 288 84 183 151 118 115 253 83 89 160 223 92 265 214 270 92 106 178 218 201 237 220 210 211 182 186 180 181 173 161 155 149 144 140 143 147 130 124 133 144 151 144 142 155 157 151 147 144 145 134 120 126 117 114 120 149 194
353 283 307 294 260 270 288 265 133 142 271 229 133 254 201 211 224 295 143 151 223 225 233 171 197 184 208 184 192 165 252 162 131 123 102 129 262 116 175 123 53 145 227 227 151 88 109 208 236 257 252 231 224 186 168 177 182 164 170 155 147 143 139 133 130 139 133 134 137 135 133 126 122 123 125 118 120 126 128 121 114 85 94 104 99 85 92
303 271 247 272 284 236 199 41 265 141 119 337 50 340 308 198 203 175 239 221 262 211 248 174 234 167 249 105 190 172 191 173 108 320 77 170 289 77 98 99 118 145 237 194 101 119 194 223 230 245 243 239 208 179 184 176 177 164 163 155 150 150 143 141 137 149 147 138 141 137 134 124 126 133 130 118 105 75 67 90 107 107 101 90 77 64 60
266 262 234 216 194 282 104 255 249 105 310 117 118 188 238 252 276 180 225 248 205 244 204 158 223 147 211 218 144 165 76 16 89 96 38 103 106 148 126 177 202 236 115 59 124 177 215 217 217 230 233 228 210 185 173 160 154 145 148 158 148 142 133 125 122 128 132 125 122 126 121 122 119 103 92 95 111 114 106 83 82 92 88 84 78 78 70
249 185 283 331 29 260 73 294 298 169 200 217 179 210 182 196 217 196 207 246 170 216 241 180 148 165 195 252 92 229 128 176 339 104 195 190 70 248 128 234 224 123 145 221 235 261 244 251 269 244 214 204 201 189 172 164 159 154 155 153 153 148 140 140 146 139 143 140 141 131 127 124 111 103 101 103 106 115 111 107 99 85 80 89 91 77 57
151 164 142 120 213 290 138 215 151 231 268 166 206 198 212 234 191 228 242 233 243 260 139 232 209 157 184 211 153 197 136 109 112 195 147 116 117 231 233 225 104 137 229 165 209 221 220 238 234 222 210 202 188 178 170 163 148 137 140 157 169 156 153 144 147 143 146 138 131 122 127 122 121 117 111 111 109 104 103 112 105 103 102 86 86 99 329
333 302 138 153 110 261 177 192 222 197 194 212 210 198 207 222 225 229 241 264 279 235 257 217 169 176 157 189 163 3 109 118 147 217 90 85 183 254 56 118 221 187 176 217 221 237 250 250 235 224 208 180 156 152 157 156 154 155 156 148 144 147 148 143 144 141 142 127 122 118 120 121 120 119 113 98 95 109 111 103 94 101 100 111 125 112 64
205 247 157 146 219 173 189 239 230 286 268 245 244 227 235 225 253 261 262 238 216 151 228 65 9 12 116 303 89 187 191 109 97 301 177 192 42 58 10 331 239 225 185 183 229 218 227 235 234 214 189 172 159 155 156 155 154 149 144 143 139 142 145 141 136 137 135 130 128 125 123 121 121 118 119 127 117 94 95 99 109 112 104 98 95 104 125
270 202 161 205 225 215 224 215 196 241 257 263 267 269 262 249 239 245 267 284 107 207 235 116 172 91 63 291 114 87 350 313 110 244 329 58 119 190 157 219 189 246 260 196 222 222 226 239 223 172 158 157 164 159 157 153 150 150 151 149 146 145 140 138 137 136 129 123 124 121 122 125 121 120 119 105 101 113 136 135 124 127 142 151 150 138 96
105 313 282 284 0 307 271 189 167 237 276 285 320 294 282 278 315 284 202 124 167 146 54 41 24 91 251 352 36 28 63 303 189 107 95 208 199 197 178 252 216 189 245 254 231 255 262 207 140 147 161 155 152 149 148 151 149 148 146 137 135 135 137 134 131 128 125 124 124 126 128 121 123 126 126 132 148 159 141 133 146 159 200 142 133 123 113
245 206 238 238 211 219 21 11 354 317 326 309 303 305 327 290 219 226 316 224 155 84 47 128 196 109 79 31 60 68 225 194 76 173 163 201 208 165 179 190 237 217 225 234 228 224 228 237 164 149 150 153 153 152 149 148 145 144 139 132 131 127 127 125 123 120 119 122 123 118 112 117 127 126 136 139 137 124 109 318 276 169 155 145 138 123 111
182 212 233 227 226 245 246 245 259 247 244 262 304 286 300 280 276 71 35 3 292 153 169 172 100 69 71 157 212 182 34 47 179 191 250 260 162 168 212 194 214 222 219 228 309 63 118 140 165 159 156 154 153 148 141 138 137 137 135 134 134 132 130 126 125 125 125 121 118 118 124 131 135 137 142 127 114 116 156 251 214 148 124 119 121 118 118